Location: Crescent
(42.8242°N, 73.7329°W)
Time: 01:24:28
(UTC+00:00)

Tiros 1 - Pass Details

Date: 20 February 2026
Orbit: 618 x 649 km, 48.4° (Epoch: 10 March)

Event Time Altitude Azimuth Distance (km) Brightness Sun altitude
Rises 17:19:25 0° 295° (WNW) 2,899 10.3 36.4°
Reaches altitude 10° 17:21:45 10° 297° (WNW) 1,987 9.6 36.4°
Maximum altitude 17:26:18 75° 23° (NNE) 642 7.5 36.3°
Drops below altitude 10° 17:30:51 10° 109° (ESE) 1,975 9.9 36.2°
Sets 17:33:09 0° 111° (ESE) 2,879 10.6 36.2°
